Theta_e
314 312 313 313 311 313 315 316 317 315 314 314 312 312 312 314 313 312 313 312 312 311 310 310 310 310 309 311 311 312 314 318 319 321 322 322 322 321 321 321 321 320 319 318
313 313 313 313 313 314 314 315 314 314 313 312 312 312 312 313 312 313 313 313 312 311 310 309 309 309 309 311 312 313 316 320 320 320 321 321 321 320 320 321 318 317 316 315
314 315 315 315 316 316 315 315 315 315 314 313 312 312 312 312 314 314 313 314 313 313 311 309 309 309 309 311 312 313 317 318 319 320 320 320 319 319 320 318 316 313 312 307
314 315 316 314 315 314 315 315 315 315 315 315 312 316 314 315 313 311 313 312 313 311 310 311 309 309 309 310 312 314 317 318 318 318 318 319 319 320 318 316 310 307 303 301
315 314 314 315 315 313 315 314 315 315 314 316 315 315 315 314 315 316 313 312 312 312 312 310 310 309 308 310 311 314 316 316 316 316 318 319 319 317 314 309 304 302 299 298
313 313 312 313 310 313 311 313 313 313 313 315 314 316 316 317 317 316 312 312 312 312 310 309 308 307 307 310 312 313 314 314 314 315 318 318 317 313 308 303 302 299 298 298
312 312 312 312 312 311 313 314 317 317 315 319 314 315 318 315 313 313 312 310 310 310 309 308 307 306 306 308 312 312 313 314 314 315 316 315 313 308 304 303 301 300 298 298
315 315 312 311 312 313 312 314 317 320 319 317 311 314 316 313 313 312 314 313 309 308 308 307 307 306 306 307 311 312 313 314 316 316 315 312 306 303 302 301 299 298 298 297
315 315 312 310 313 314 312 315 315 316 301 310 315 313 312 309 308 308 309 310 309 307 307 307 306 306 305 307 310 313 314 315 315 315 312 305 302 302 301 300 298 297 297 297
316 320 312 309 312 311 313 312 316 313 314 314 315 316 318 312 310 306 306 306 306 306 306 306 306 305 304 307 309 311 313 314 314 311 305 302 302 301 300 299 298 297 296 295
314 318 312 310 311 313 312 313 314 315 314 317 316 317 312 315 312 307 307 307 308 307 306 306 305 304 303 305 308 310 310 310 309 304 302 301 301 300 298 297 296 296 295 294
314 316 310 311 309 309 313 313 312 316 316 312 313 319 311 312 310 309 308 307 307 307 306 306 304 303 303 303 306 307 307 307 304 302 301 300 300 299 297 296 296 295 294 293
314 316 316 316 311 310 311 311 314 314 310 315 315 319 308 309 310 310 308 308 307 307 305 305 304 303 303 303 303 303 304 303 301 300 300 299 298 297 297 296 295 294 294 293
316 316 319 321 319 312 312 312 313 315 315 316 317 317 313 311 310 308 308 309 308 307 306 304 303 303 303 302 302 301 301 300 300 299 299 298 298 297 296 295 295 294 293 292
316 317 315 317 317 314 312 312 312 313 314 316 317 316 316 313 308 309 311 308 307 306 305 305 305 304 303 302 302 301 300 299 299 298 298 298 297 296 295 294 294 293 292 291
312 317 316 318 315 315 316 313 312 313 313 313 315 315 312 314 315 310 311 310 307 307 307 306 304 304 304 303 303 301 299 299 298 298 297 296 295 295 294 294 293 292 291 290
312 314 314 320 315 315 317 317 317 314 313 313 314 314 311 313 312 309 310 310 310 311 310 307 307 306 305 305 304 302 300 298 298 297 296 295 295 294 295 294 292 292 290 289
312 314 313 318 315 320 318 314 316 317 316 313 312 314 312 313 314 314 314 313 311 310 308 307 306 305 306 305 303 301 300 298 298 296 295 295 294 294 294 293 293 291 290 289
313 313 315 318 319 318 317 310 313 314 316 315 316 315 314 313 312 311 314 314 314 313 311 310 309 308 307 305 304 302 299 299 298 297 295 295 295 295 294 294 294 291 290 289
311 313 314 313 320 321 317 306 308 311 318 313 313 314 314 307 312 313 313 311 310 309 308 308 307 307 306 305 305 301 300 300 298 297 297 297 296 296 296 295 294 292 290 289
315 315 315 316 319 317 303 298 310 317 314 298 306 309 311 309 313 311 313 309 308 307 307 308 309 308 308 306 306 301 301 300 300 300 299 297 296 294 293 293 293 292 290 289
314 317 318 317 319 320 300 302 313 304 300 303 303 303 304 307 308 310 308 307 308 310 308 307 307 306 305 303 302 301 300 300 299 297 294 292 292 292 292 292 292 291 290 289
312 308 315 314 313 296 296 297 297 298 298 298 302 301 303 305 306 306 307 307 307 307 308 308 305 303 301 301 300 300 299 295 293 292 291 291 291 290 290 289 289 289 288 288
300 298 303 303 298 296 298 300 301 301 298 297 298 302 301 302 302 303 305 307 307 304 303 302 300 299 298 296 294 293 292 291 291 291 291 291 290 290 290 289 289 288 288 288
300 300 299 297 296 295 298 300 303 305 303 301 298 296 300 302 301 300 300 301 300 298 297 296 295 294 293 292 292 292 291 291 291 291 291 290 290 290 290 289 289 289 288 288
296 299 302 304 299 301 301 303 304 305 304 299 298 295 295 297 297 296 296 296 296 296 294 293 292 292 291 291 291 292 291 290 290 290 290 290 290 290 289 289 289 289 288 288
Wind_Speed
5 4 7 12 9 6 3 3 3 4 4 4 9 9 10 20 22 22 27 31 30 29 25 22 18 17 15 14 13 13 14 17 20 22 22 21 19 16 14 12 13 12 12 10
3 8 10 7 7 8 7 7 7 5 4 5 6 11 9 9 16 32 36 38 38 33 31 27 22 20 17 15 14 15 17 21 22 21 22 21 20 18 17 17 15 12 11 11
8 7 8 8 5 6 6 6 5 7 1 3 5 7 8 10 29 28 36 41 42 44 40 32 26 23 21 20 19 19 22 25 24 22 22 22 22 21 20 18 16 16 15 14
9 13 3 5 7 8 7 4 6 5 1 5 4 8 6 7 10 10 34 40 43 45 38 32 28 26 25 24 23 24 26 26 25 24 23 23 22 24 22 20 20 20 18 15
9 8 7 8 7 8 7 3 2 3 3 1 3 5 6 8 11 20 22 32 40 44 43 37 32 27 26 28 28 29 29 27 26 25 26 25 25 24 24 24 23 21 18 14
5 2 6 8 2 3 8 5 6 5 3 3 9 10 4 7 10 9 7 27 38 42 41 34 29 28 29 30 30 31 31 30 28 28 27 26 25 27 28 27 24 20 16 12
2 4 3 6 5 5 4 7 2 3 1 8 4 6 13 10 8 6 12 28 37 40 39 35 33 33 33 34 34 32 32 31 30 28 28 27 26 26 27 25 22 19 15 11
10 6 12 7 9 9 8 9 6 7 5 5 2 7 6 9 15 12 15 25 35 38 38 37 34 33 34 34 34 34 33 33 32 30 28 27 28 28 25 22 20 17 14 12
7 6 3 2 5 12 5 7 3 2 2 1 6 8 8 6 8 3 12 27 38 40 39 36 32 33 34 35 36 35 34 33 33 31 31 32 31 28 25 22 20 18 15 14
5 3 1 1 4 3 7 7 2 1 3 6 5 7 11 6 13 8 11 20 28 36 37 35 33 35 35 35 34 34 34 35 34 34 33 33 30 27 24 21 20 19 17 15
6 5 2 5 8 13 5 5 5 3 5 5 3 7 7 12 14 14 16 29 35 38 38 37 36 36 36 35 36 36 37 37 37 36 35 33 30 27 24 21 20 19 18 16
14 3 4 9 4 5 6 8 7 5 6 4 3 18 3 3 9 16 21 29 34 36 37 37 37 38 38 38 39 39 40 40 39 37 35 32 29 27 24 22 22 20 18 16
10 5 2 4 3 2 6 8 15 5 3 9 5 14 3 2 4 16 22 30 34 36 37 39 39 41 41 41 42 42 43 42 40 38 36 34 31 28 25 23 22 21 20 18
23 6 14 17 5 7 7 12 17 20 8 8 24 24 3 3 6 9 21 27 32 36 39 40 41 43 44 45 45 45 44 43 42 40 38 36 33 28 25 23 22 22 21 20
15 12 9 19 4 7 8 15 20 23 29 13 24 24 21 14 13 21 24 22 27 34 39 43 46 47 47 48 47 46 46 44 43 41 40 37 32 29 26 24 23 23 23 22
5 13 12 17 9 8 8 13 24 26 27 27 29 34 7 18 24 20 29 30 33 37 43 46 47 48 49 49 49 49 49 47 45 43 41 37 33 31 27 25 26 25 25 25
6 9 6 22 10 6 9 37 21 20 21 21 25 36 10 19 17 22 29 35 42 44 45 48 51 50 48 47 48 48 47 48 44 43 40 36 34 31 28 27 27 26 27 26
9 12 5 12 6 12 24 8 27 30 28 23 26 32 16 23 32 37 38 40 43 46 45 46 47 46 44 43 42 40 41 45 41 42 39 36 34 31 30 28 27 28 28 27
18 15 7 9 14 12 20 7 12 13 29 29 29 32 31 27 21 30 35 43 44 45 47 46 43 40 39 35 31 33 36 33 35 38 37 34 33 32 30 29 29 28 28 28
15 18 12 5 9 13 17 4 8 6 21 15 25 28 24 13 11 21 33 29 33 35 36 34 31 27 26 27 29 30 30 30 32 31 29 28 28 28 27 26 26 26 26 25
16 15 18 17 13 7 6 6 15 9 8 3 2 14 12 11 21 16 17 22 24 23 24 21 20 22 21 24 26 32 26 29 25 22 23 23 23 22 21 22 23 23 24 25
14 10 15 13 15 20 7 4 15 4 3 4 1 5 10 16 11 14 21 21 21 18 19 16 14 16 19 22 26 26 25 21 19 19 20 21 21 20 19 19 20 22 24 25
4 2 3 6 3 2 2 2 5 6 8 7 5 4 11 14 15 19 19 16 15 12 11 16 22 23 21 19 19 20 18 19 20 20 20 20 19 18 17 19 20 22 24 25
3 2 1 1 2 2 3 4 5 10 11 11 11 5 6 10 12 13 12 12 18 19 18 18 17 17 18 18 17 15 15 16 17 18 19 20 20 19 18 20 21 23 25 27
2 4 4 1 2 2 9 10 9 3 3 6 8 4 1 4 8 9 14 14 14 15 15 16 16 16 14 14 15 16 16 15 17 18 21 22 22 22 22 22 23 25 27 29
6 6 5 3 8 4 6 19 19 17 9 2 3 4 2 4 7 9 12 13 15 16 16 16 14 11 11 12 14 16 17 17 17 19 23 25 25 25 25 26 27 29 30 31
Wind_Direction
185 124 201 203 199 204 223 208 235 261 219 151 223 249 250 242 225 228 218 211 214 218 216 215 214 215 209 207 205 199 178 167 167 168 170 173 177 182 189 194 180 177 175 174
64 230 225 199 216 225 245 260 265 291 207 170 259 254 257 237 224 225 220 217 216 210 211 212 212 212 207 205 196 188 176 169 169 176 178 178 180 180 187 186 181 179 170 160
177 219 211 194 214 200 221 198 223 219 245 270 293 271 248 249 242 236 234 229 221 216 211 208 209 209 204 200 197 188 176 176 178 180 181 183 179 182 186 184 183 166 159 149
226 229 195 162 214 177 239 207 222 241 184 244 152 285 240 250 265 222 232 222 222 214 211 212 207 207 205 198 192 185 183 181 181 184 188 194 194 187 183 180 171 159 151 148
229 180 186 203 208 168 226 145 147 190 189 330 288 290 266 216 250 252 237 222 215 217 212 208 209 210 205 199 195 189 187 186 187 190 196 198 191 187 178 170 165 158 155 151
202 151 161 191 93 168 149 78 38 39 76 268 221 217 202 233 235 263 240 220 207 206 203 206 207 205 203 198 196 192 190 190 193 196 195 195 195 184 175 170 169 165 163 161
170 210 173 146 93 6 114 103 294 319 323 244 246 239 245 250 240 223 236 198 197 197 197 198 200 202 201 201 197 196 195 196 197 196 194 193 193 187 180 177 177 176 176 175
193 262 172 188 186 172 195 162 167 220 217 260 23 239 251 230 262 260 248 214 194 195 201 204 207 208 204 203 200 198 196 198 198 196 196 193 188 185 182 183 182 185 187 186
179 255 104 93 155 156 199 214 165 52 47 17 224 278 294 227 261 258 190 192 195 199 202 207 208 208 205 201 200 199 197 198 199 197 196 190 188 189 190 188 191 193 196 197
216 239 331 60 97 51 153 157 90 150 212 250 253 249 239 230 240 214 216 197 193 201 204 207 209 209 204 202 199 197 199 200 199 197 195 194 194 194 195 198 199 200 202 201
188 179 300 131 201 174 158 181 202 157 174 207 278 254 215 217 216 201 217 203 205 208 208 209 209 208 204 201 200 198 198 199 199 197 197 198 197 198 200 202 203 208 208 210
203 134 171 208 275 255 198 184 173 169 218 237 187 259 171 173 216 201 214 208 212 214 212 212 210 208 204 202 202 202 201 202 202 201 201 201 203 204 204 205 209 211 214 215
171 215 105 311 352 17 209 202 220 274 51 217 207 266 321 45 205 216 210 212 213 213 211 211 211 210 207 206 206 205 206 205 203 204 205 205 207 208 208 210 213 215 219 220
173 175 210 228 191 151 196 202 208 212 230 221 236 261 236 200 229 220 218 217 215 216 213 212 213 213 211 211 209 210 209 208 207 208 209 211 212 211 212 214 217 221 223 225
170 213 205 248 209 159 186 198 205 210 224 211 250 240 241 233 223 221 226 216 210 215 214 217 216 214 214 214 213 215 214 212 212 213 214 216 214 214 214 216 221 223 226 228
171 232 214 251 230 223 219 211 217 217 229 235 248 255 170 231 241 223 227 220 211 217 223 220 218 217 217 217 217 217 217 216 215 217 219 217 215 217 217 222 226 226 229 230
169 194 166 244 210 245 277 233 226 226 230 223 237 246 213 247 240 234 231 225 220 227 227 222 220 218 218 220 221 220 220 220 218 222 222 220 220 221 223 226 228 234 233 235
187 207 185 252 127 220 244 220 222 229 237 226 246 259 240 243 248 251 250 245 237 232 227 221 218 219 218 223 226 225 226 224 223 224 225 225 223 224 227 229 235 236 236 239
203 197 219 227 223 267 278 155 173 189 244 234 238 250 252 255 251 256 250 246 246 242 234 227 219 213 217 224 229 228 224 225 224 225 225 225 224 226 229 234 237 237 239 241
198 203 199 176 225 229 273 167 189 126 250 193 216 242 244 171 229 253 242 237 233 231 230 219 212 209 214 217 222 224 221 222 223 224 225 224 225 229 233 236 239 241 242 246
200 209 212 223 238 256 209 179 135 169 256 341 236 249 239 203 231 266 237 213 216 208 186 182 198 203 212 217 226 220 220 221 224 222 220 221 223 227 232 236 236 239 242 247
186 201 221 227 234 242 152 95 192 284 32 4 279 253 196 207 211 205 180 165 167 177 177 180 195 212 210 209 211 215 217 219 214 209 209 214 219 222 221 226 231 236 241 247
213 241 204 210 214 9 346 34 92 74 78 44 63 121 151 147 147 157 164 166 160 166 198 205 199 189 185 189 197 200 199 194 198 205 213 216 213 219 226 234 240 243 245 249
213 237 82 184 22 330 11 91 94 82 78 57 61 99 132 129 139 139 152 180 194 187 181 179 175 178 179 176 178 184 191 201 211 218 219 216 222 228 235 240 243 246 252 256
153 138 132 265 263 270 249 206 183 174 86 65 32 50 154 182 172 174 175 175 174 171 167 169 168 168 173 183 192 196 203 212 219 221 223 226 233 240 246 250 256 259 261 263
186 169 170 201 184 207 209 205 206 218 210 178 33 32 128 158 179 173 173 172 170 171 170 169 169 177 191 202 209 215 219 222 227 231 234 238 243 249 254 258 260 261 263 265